Regional Weather Roundup
Issued by NWS Austin/San Antonio, TX

Home | Current Version | Previous Version | Text Only | Print | Product List | Glossary On
Versions: 1 2 3 4 5 6 7 8 9 10 11 12 13 14 15 16 17 18 19 20 21 22 23 24 25 26 27 28 29 30 31 32 33 34 35 36 37 38 39 40 41 42 43 44 45 46 47 48 49 50
000
ASUS44 KEWX 221810
RWREWX
SOUTH TEXAS REGIONAL WEATHER ROUNDUP
NATIONAL WEATHER SERVICE AUSTIN/SAN ANTONIO TX
1200 PM CST THU FEB 22 2018

NOTE: "FAIR" INDICATED FEW OR NO CLOUDS BELOW 12,000 FEET WITH NO
SIGNIFICANT WEATHER AND/OR OBSTRUCTIONS TO VISIBILITY.

* - THESE STATIONS ARE NOT NWS OR FAA STATIONS...AND ARE NOT SUBJECT
    TO NWS AND FAA QUALITY CONTROL.

TXZ171-172-183>190-221900-
TEXAS HILL COUNTRY AND EDWARDS PLATEAU

CITY           SKY/WX    TMP DP  RH WIND       PRES   REMARKS
JUNCTION       NOT AVBL
*LLANO         CLOUDY    37  36  93 NW6       30.31S FOG     WCI  33
BURNET         CLOUDY    37  36  96 W8        30.27S FOG     WCI  31
6HR MIN TEMP:  34; 6HR MAX TEMP:  38; 6HR PCP: TRACE;

*HORSESHOE BAY CLOUDY    38  38 100 NW5       30.27F FOG     WCI  34
6HR MIN TEMP:  34; 6HR MAX TEMP:  38;

*KERRVILLE     CLOUDY    38  36  91 NW6       30.23F WCI  34
6HR MIN TEMP:  36; 6HR MAX TEMP:  38; 6HR PCP:  0.01;

*FREDERICKSBRG CLOUDY    37  35  95 N5        30.24F FOG     WCI  33
6HR MIN TEMP:  33; 6HR MAX TEMP:  37; 6HR PCP:  0.01;

*ROCKSPRINGS   FOG       39  39 100 VRB6      30.25F VSB 3/4 WCI  35
*BOERNE STAGE  CLOUDY    39  39 100 CALM      30.24F VSB 1
*CASTROVILLE   CLOUDY    46  46 100 CALM      30.25F FOG
HONDO          CLOUDY    49  45  86 N6        30.24F WCI  46
6HR MIN TEMP:  45; 6HR MAX TEMP:  49; 6HR PCP:  0.01;

*UVALDE        CLOUDY    49  44  84 NE3       30.24F
6HR MIN TEMP:  42; 6HR MAX TEMP:  49;

DEL RIO        CLOUDY    49  40  71 CALM      30.23F
6HR MIN TEMP:  39; 6HR MAX TEMP:  49;

LAUGHLIN AFB   CLOUDY    47  41  80 NW5       30.23F WCI  45
6HR MIN TEMP:  40; 6HR MAX TEMP:  47;

CARRIZO SPRGS  CLOUDY    50  46  87 NE5       30.23F WCI  48
*EAGLE PASS    CLOUDY    50  43  76 NW5       30.23F WCI  48
*FAITH RANCH   CLOUDY    50  46  87 N5        30.22F WCI  48
$$

TXZ173-191>194-202-209-217>225-228-221900-
CENTRAL AND SOUTH CENTRAL TEXAS

CITY           SKY/WX    TMP DP  RH WIND       PRES   REMARKS
GEORGETOWN     MIX PCPN  37  37 100 NW8       30.28S FOG     WCI  31
6HR MIN TEMP:  35; 6HR MAX TEMP:  38; 6HR PCP:  0.12;

AUSTIN/BERGSTM CLOUDY    41  41 100 N8        30.26F FOG     WCI  36
6HR MIN TEMP:  37; 6HR MAX TEMP:  41; 6HR PCP:  0.03;

AUSTIN/MABRY   CLOUDY    40  38  93 NW6       30.26F FOG     WCI  36
6HR MIN TEMP:  37; 6HR MAX TEMP:  40; 6HR PCP:  0.10;

*AUSTIN/EXEC   NOT AVBL
*LAGO VISTA    DRZL/FOG  38  38 100 NW3       30.25F VSB 3/4
6HR MIN TEMP:  34; 6HR MAX TEMP:  38;

SAN MARCOS     CLOUDY    42  41  96 N9        30.26F FOG     WCI  37
6HR MIN TEMP:  38; 6HR MAX TEMP:  42; 6HR PCP:  0.07;

NEW BRAUNFELS  CLOUDY    43  41  93 N9        30.23F FOG     WCI  38
6HR MIN TEMP:  40; 6HR MAX TEMP:  43; 6HR PCP:  0.07;

RANDOLPH AFB   DRZL/FOG  43  42  95 NW5       30.24F VSB 1   WCI  40
6HR MIN TEMP:  41; 6HR MAX TEMP:  43;

PT SAN ANTONIO CLOUDY    45  44  96 NE5       30.22F WCI  43
6HR MIN TEMP:  42; 6HR MAX TEMP:  45; 6HR PCP: TRACE;

SAN ANTONIO    CLOUDY    45  42  89 N5        30.24F WCI  43
6HR MIN TEMP:  41; 6HR MAX TEMP:  45; 6HR PCP: TRACE;

STINSON FIELD  CLOUDY    46  44  93 N6        30.23F FOG     WCI  43
6HR MIN TEMP:  44; 6HR MAX TEMP:  46; 6HR PCP:  0.01;

*LA GRANGE     CLOUDY    44  43  98 N6        30.22F FOG     WCI  40
6HR MIN TEMP:  41; 6HR MAX TEMP:  44; 6HR PCP:  0.05;

*GIDDINGS      FOG       39  38  99 N7        30.25F VSB 3/4 WCI  34
6HR MIN TEMP:  36; 6HR MAX TEMP:  39; 6HR PCP:  0.04;

*GONZALES      CLOUDY    43  43 100 N8        30.24F FOG     WCI  38
6HR MIN TEMP:  41; 6HR MAX TEMP:  43;

$$

TXZ163>164-176>182-195>201-210>213-226-227-235-221900-
SOUTHEAST TEXAS

CITY           SKY/WX    TMP DP  RH WIND       PRES   REMARKS
COLLEGE STN    CLOUDY    45  45 100 N6        30.24F FOG     WCI  42
6HR MIN TEMP:  41; 6HR MAX TEMP:  46; 6HR PCP:  0.01;

*BRYAN         CLOUDY    44  44 100 NW5       30.26F FOG     WCI  42
6HR MIN TEMP:  40; 6HR MAX TEMP:  44;

*CALDWELL      CLOUDY    42  41  97 NW8       30.26F FOG     WCI  37
6HR MIN TEMP:  38; 6HR MAX TEMP:  42; 6HR PCP:  0.03;

*CROCKETT      FOG       50  50 100 CALM      30.26F VSB 1
*BRENHAM       FOG       46  46 100 NW8       30.25S VSB 3/4 WCI  42
6HR MIN TEMP:  43; 6HR MAX TEMP:  46; 6HR PCP:  0.04;

HUNTSVILLE     FOG       50  49  96 CALM      30.23F VSB 1
6HR MIN TEMP:  44; 6HR MAX TEMP:  50; 6HR PCP:  0.07;

CONROE         FOG       56  56 100 CALM      30.22F VSB 1
6HR MIN TEMP:  50; 6HR MAX TEMP:  56; 6HR PCP:  0.01;

HOUSTON BUSH   LGT RAIN  61  60  97 NW3       30.21F VSB 1/2
6HR MIN TEMP:  55; 6HR MAX TEMP:  61; 6HR PCP:  0.01;

HOUSTON HOBBY  CLOUDY    65  65 100 NW3       30.20F FOG
6HR MIN TEMP:  54; 6HR MAX TEMP:  65; 6HR PCP:  0.04;

*HOUSTON SW AP FOG       61  61  99 CALM      30.21F VSB 1
6HR MIN TEMP:  52; 6HR MAX TEMP:  61; 6HR PCP:  0.03;

PEARLAND       CLOUDY    70  70 100 CALM      30.21F FOG
6HR MIN TEMP:  56; 6HR MAX TEMP:  69; 6HR PCP:  0.09;

HOUSTON HOOKS  CLOUDY    58  57  97 N5        30.21F FOG
6HR MIN TEMP:  52; 6HR MAX TEMP:  57;

ELLINGTON FLD  CLOUDY    72  64  78 SE3       30.22  FOG
SUGAR LAND     FOG       61  59  93 NW5       30.21F VSB 1
6HR MIN TEMP:  55; 6HR MAX TEMP:  61; 6HR PCP:  0.02;

*HOUSTON EXEC  FOG       52  52 100 N8        30.23F VSB 1
*CLEVELAND MUN LGT RAIN  61  60  96 CALM      30.23F
6HR MIN TEMP:  55; 6HR MAX TEMP:  61; 6HR PCP:  0.11;

*WHARTON       CLOUDY    53  53  98 N6        30.21F FOG
6HR MIN TEMP:  49; 6HR MAX TEMP:  54;

*COLUMBUS      LGT RAIN  47  46  95 N7        30.23F VSB 3/4 WCI  44
6HR MIN TEMP:  44; 6HR MAX TEMP:  47;

*EAGLE LAKE    LGT RAIN  51  51 100 N7        30.22S
6HR MIN TEMP:  46; 6HR MAX TEMP:  51;

$$

TXZ214>216-236>238-221900-
THE UPPER TEXAS COAST

CITY           SKY/WX    TMP DP  RH WIND       PRES   REMARKS
*ORANGE        CLOUDY    79  72  79 S17G24    30.24F
6HR MIN TEMP:  66; 6HR MAX TEMP:  80;

PORT ARTHUR    CLOUDY    80  69  69 S17G26    30.21F
6HR MIN TEMP:  65; 6HR MAX TEMP:  81; 6HR PCP: TRACE;

GALVESTON      PTSUNNY   77  71  82 SE17      30.21S HAZE
6HR MIN TEMP:  66; 6HR MAX TEMP:  78; 6HR PCP:  0.02;

ANGLETON       CLOUDY    71  67  87 CALM      30.19F FOG
6HR MIN TEMP:  56; 6HR MAX TEMP:  71; 6HR PCP:  0.07;

*BAY CITY      CLOUDY    63  63 100 CALM      30.20F FOG
PALACIOS       FOG       59  59 100 N8        30.19F VSB 3/4
6HR MIN TEMP:  52; 6HR MAX TEMP:  59; 6HR PCP:  0.01;

$$

TXZ229>234-239>247-221900-
TEXAS COASTAL BEND AND RIO GRANDE PLAINS

CITY           SKY/WX    TMP DP  RH WIND       PRES   REMARKS
VICTORIA       FOG       51  50  96 N8        30.22S VSB 3/4
6HR MIN TEMP:  48; 6HR MAX TEMP:  51; 6HR PCP:  0.01;

*BEEVILLE      CLOUDY    47  47 100 N8        30.23F FOG     WCI  43
6HR MIN TEMP:  46; 6HR MAX TEMP:  48;

ROCKPORT       CLOUDY    56  55  97 N8        30.20F FOG
6HR MIN TEMP:  52; 6HR MAX TEMP:  56;

*PORT ARANSAS  NOT AVBL
*PORT LAVACA   FOG       54  52  95 N7        30.21S VSB 1
6HR MIN TEMP:  50; 6HR MAX TEMP:  54;

*INGLESIDE     CLOUDY    56  55  95 MISG      30.20F FOG
CORPUS CHRISTI DRIZZLE   54  54 100 N10       30.21F FOG
6HR MIN TEMP:  49; 6HR MAX TEMP:  54; 6HR PCP: TRACE;

CORPUS NAS     DRIZZLE   57  56  96 N13       30.20S FOG
6HR MIN TEMP:  52; 6HR MAX TEMP:  57; 6HR PCP: TRACE;

*ROBSTOWN      CLOUDY    51  51  99 N12       30.22F FOG
6HR MIN TEMP:  48; 6HR MAX TEMP:  51;

ALICE          CLOUDY    51  49  92 N9        30.21F
6HR MIN TEMP:  49; 6HR MAX TEMP:  51;

KINGSVILLE NAS CLOUDY    53  52  96 NW9       30.22F FOG
6HR MIN TEMP:  49; 6HR MAX TEMP:  53; 6HR PCP: TRACE;

COTULLA        CLOUDY    50  47  89 NE5       30.24F WCI  48
6HR MIN TEMP:  46; 6HR MAX TEMP:  50; 6HR PCP:  0.01;

LAREDO         CLOUDY    52  47  83 N9        30.23F
6HR MIN TEMP:  45; 6HR MAX TEMP:  52; 6HR PCP: TRACE;

$$

TXZ248>255-221900-
DEEP SOUTH TEXAS

CITY           SKY/WX    TMP DP  RH WIND       PRES   REMARKS
BROWNSVILLE    CLOUDY    58  56  93 NW9       30.19F
6HR MIN TEMP:  53; 6HR MAX TEMP:  58; 6HR PCP: TRACE;

PORT ISABEL    CLOUDY    61  53  75 NW10      30.18F
6HR MIN TEMP:  52; 6HR MAX TEMP:  61; 6HR PCP:  0.01;

*SOUTH P


USA.gov is the U.S. government's official web portal to all federal, state and local government web resources and services.